[[{"header":{"parameterUnit":"m.s-1","parameterCategory":1,"la1":30.2991,"la2":30.254,"lo1":-89.0895,"lo2":-89.0444,"dy":0.0017,"dx":0.0017,"nx":28,"ny":28,"refTime":"2025-07-30T21:00:00:Z","depth":0,"parameterNumber":2,"parameterNumberName":"U-component_of_WINDS"},"data":[0,0,0,0,0,0,0,0,0,0,0,0,0,0,0,0,0,0,0,0,0,0,0,0,0,0,0,0,0,0,0,0,0,0,0,0,0,0,0,0,0,0,0,0,0,0,0,0,0,0,0,0,0,0,0,0,0,0,2.7474,2.7474,0,2.7553,2.7554,2.7555,2.7494,2.7492,2.7489,2.7487,2.7578,2.7582,2.7587,0,0,0,0,0,0,0,0,0,0,0,0,0,2.728,2.7284,2.7473,2.7474,2.7475,2.7553,2.7554,2.7555,2.7495,2.7492,2.7489,2.7486,2.7576,2.7582,2.7588,0,0,0,0,0,0,0,0,0,0,0,0,0,2.7363,2.7286,2.7473,2.7455,2.7454,2.7552,2.7554,2.7555,2.7496,2.7492,2.7488,2.7484,2.7574,2.7581,2.7589,2.7713,0,0,2.7611,2.7614,0,0,0,0,0,0,0,0,2.7358,2.737,2.7456,2.7456,2.7455,2.7509,2.7519,2.7608,2.7497,2.748,2.7487,2.7482,2.7559,2.7567,2.7591,2.7717,2.7721,2.7612,2.7616,2.7619,2.7621,0,0,0,0,0,0,0,2.7353,2.7366,2.7505,2.7458,2.7457,2.7446,2.7453,2.7536,2.7541,2.7481,2.7477,2.7487,2.7558,2.7584,2.7593,2.7722,2.7611,2.7618,2.7622,2.7625,2.7956,2.7961,0,0,0,0,0,0,2.7347,2.7362,2.7503,2.7507,2.7396,2.7452,2.746,2.7496,2.754,2.7542,2.749,2.7484,2.7574,2.7584,2.7596,2.7745,2.7619,2.7626,2.763,2.7952,2.7957,2.7962,0,0,0,0,0,0,2.7343,2.736,2.7499,2.7434,2.745,2.746,2.7501,2.75,2.7526,2.7546,2.7548,2.7515,2.7571,2.7585,2.7684,2.7747,2.7629,2.7636,2.7947,2.7954,2.796,2.8044,0,0,0,0,0,0,2.7338,2.7359,2.7404,2.7435,2.7454,2.7583,2.7504,2.7504,2.7537,2.753,2.757,2.7573,2.7569,2.7673,2.7691,2.7755,2.7642,2.7941,2.795,2.7958,2.8036,2.8053,2.8067,0,0,0,0,0,2.7331,2.7426,2.7407,2.7424,2.751,2.7587,2.7598,2.7588,2.7543,2.759,2.7603,2.7572,2.7737,2.7684,2.7703,2.7771,2.7937,2.7947,2.7957,2.8028,2.8049,2.8067,0,0,0,0,0,0,2.7406,2.743,2.7408,2.7515,2.7549,2.7577,2.7635,2.7611,2.766,2.7652,2.764,2.765,2.7753,2.7772,2.7712,2.7894,2.783,2.7845,2.7878,2.7898,2.7914,2.7907,2.7648,0,0,0,0,0,2.7434,2.7492,2.7511,2.7604,2.7622,2.7626,2.7659,2.7648,2.7684,2.7699,2.772,2.7759,2.7819,2.786,2.7917,2.8038,2.8047,2.8094,2.811,2.8123,2.8136,2.8203,2.8225,2.7995,2.7995,2.7994,0,0,2.7495,2.7515,2.7553,2.762,2.7644,2.7708,2.7638,2.7708,2.7755,2.7711,2.7804,2.7821,2.7864,2.7974,2.8024,2.7993,2.8201,2.8135,2.8146,2.8152,2.8215,2.8237,2.8257,2.8001,2.8,2.7999,0,0,2.7637,2.7657,2.7737,2.7763,2.78,2.7802,2.7822,2.7853,2.7862,2.7954,2.7923,2.7981,2.8085,2.8117,2.8147,2.8303,2.8277,2.8322,2.8405,2.8471,2.8489,2.8505,2.8562,2.8582,2.8335,2.8335,2.8335,0,2.7708,2.7798,2.7782,2.7854,2.7885,2.7845,2.7928,2.7955,2.8011,2.8035,2.7999,2.8129,2.8155,2.8273,2.8311,2.8336,2.836,2.8317,2.8487,2.8503,2.8518,2.8572,2.8593,2.834,2.834,2.8339,2.8339,0,2.7884,2.7948,2.8009,2.806,2.8099,2.8176,2.8175,2.8217,2.8203,2.821,2.8307,2.8337,2.8399,2.8426,2.8415,2.8544,2.8524,2.8487,2.8423,2.8545,2.8596,2.8616,2.8348,2.8346,2.8344,2.8343,0,0,2.8075,2.8117,2.8139,2.8163,2.8202,2.8253,2.833,2.8388,2.8424,2.8465,2.8531,2.862,2.8587,2.8621,2.8613,2.8671,2.8794,2.8628,2.8629,2.8658,2.894,2.8967,2.8991,2.8776,2.878,2.8783,2.8936,0,2.822,2.8349,2.8338,2.8462,2.8522,2.8486,2.8553,2.8586,2.8595,2.865,2.8661,2.8725,2.8676,2.8696,2.8751,2.8767,2.885,2.8756,2.884,2.8843,2.8831,2.9017,2.9046,2.9189,2.8956,2.8959,2.8962,0,2.8405,2.8449,2.8579,2.8609,2.8634,2.8694,2.8748,2.8799,2.8838,2.8841,2.8879,2.8861,2.8942,2.8876,2.8988,2.8924,2.8958,2.8972,2.8977,2.8985,2.891,2.9031,2.9234,2.9255,2.8992,2.899,2.8988,0,2.8533,2.8625,2.8714,2.8735,2.8773,2.8817,2.8835,2.8869,2.8905,2.8953,2.8977,2.9035,2.9067,2.9114,2.9114,2.9065,2.9229,2.9161,2.9235,2.9236,2.9272,2.927,2.9484,2.9293,2.9293,2.9292,2.9292,0,2.8695,2.8777,2.8772,2.8827,2.8918,2.8906,2.8997,2.9011,2.9042,2.9102,2.9075,2.9132,2.9128,2.9187,2.9188,2.9282,2.9297,2.9303,2.9303,2.9306,2.9305,2.9329,2.9319,2.9298,2.9297,2.9296,2.9295,0,2.8853,2.8853,2.8948,2.8976,2.8985,2.9051,2.9076,2.913,2.9137,2.9213,2.9231,2.9242,2.931,2.9315,2.9394,2.9395,2.9509,2.9498,2.9496,2.9494,2.9568,2.9561,2.9804,2.9836,2.9625,2.9627,2.9628,0,2.8957,2.9018,2.9052,2.9088,2.9109,2.9168,2.9205,2.9196,2.9236,2.9284,2.9333,2.9398,2.9449,2.9561,2.9578,2.964,2.963,2.9711,2.9639,2.9641,2.9632,2.9628,2.9635,2.9725,2.9728,2.973,2.9731,0,2.9142,2.9139,2.919,2.9243,2.9286,2.9328,2.9366,2.9399,2.9395,2.9442,2.9509,2.9549,2.9629,2.9695,2.9755,2.9777,2.9755,2.9753,2.9774,2.9778,2.9774,2.9778,2.9534,2.9748,2.9746,2.9745,2.9744,2.9744,2.9276,2.9329,2.9361,2.942,2.9448,2.9485,2.9537,2.955,2.9605,2.9667,2.966,2.9736,2.9775,2.9852,2.9879,2.9941,2.9913,2.9943,2.9951,2.9958,2.9966,2.9764,2.9952,2.9951,2.9951,2.995,2.995,0,2.9461,2.9479,2.9533,2.9587,2.9635,2.9606,2.9648,2.969,2.9756,2.9793,2.9843,2.9922,2.9986,3.0009,3.0071,3.0116,3.0108,3.0133,3.013,3.0136,2.9986,2.9963,3.0139,3.0139,3.0139,3.0139,3.0139,3.0139,2.9562,2.965,2.9651,2.9755,2.9774,2.9845,2.9872,2.9907,2.9936,3.0024,3.0076,3.0089,3.0121,3.0186,3.0244,3.0249,3.0274,3.0304,3.0306,3.0166,3.0147,3.0128,3.0106,3.031,3.031,3.045,3.0451,3.0452]},{"header":{"parameterUnit":"m.s-1","parameterCategory":1,"la1":30.2991,"la2":30.254,"lo1":-89.0895,"lo2":-89.0444,"dy":0.0017,"dx":0.0017,"nx":28,"ny":28,"refTime":"2025-07-30T21:00:00:Z","depth":0,"parameterNumber":3,"parameterNumberName":"V-component_of_WINDS"},"data":[0,0,0,0,0,0,0,0,0,0,0,0,0,0,0,0,0,0,0,0,0,0,0,0,0,0,0,0,0,0,0,0,0,0,0,0,0,0,0,0,0,0,0,0,0,0,0,0,0,0,0,0,0,0,0,0,0,0,2.7716,2.7717,0,2.7826,2.7827,2.7829,2.7859,2.7858,2.7858,2.7857,2.7963,2.7966,2.7969,0,0,0,0,0,0,0,0,0,0,0,0,0,2.7519,2.7523,2.7715,2.7717,2.7718,2.7826,2.7827,2.7829,2.7859,2.7858,2.7858,2.7857,2.7962,2.7966,2.797,0,0,0,0,0,0,0,0,0,0,0,0,0,2.7614,2.7524,2.7715,2.7747,2.775,2.7826,2.7828,2.7829,2.7859,2.7858,2.7857,2.7857,2.796,2.7965,2.797,2.802,0,0,2.7986,2.7988,0,0,0,0,0,0,0,0,2.7609,2.7622,2.7741,2.7744,2.7749,2.7828,2.7797,2.7893,2.786,2.7818,2.7857,2.7856,2.7918,2.7927,2.7949,2.8025,2.8029,2.7986,2.7989,2.7991,2.7993,0,0,0,0,0,0,0,2.7602,2.7617,2.7759,2.7742,2.7747,2.7751,2.7764,2.7815,2.7871,2.7821,2.7824,2.7837,2.792,2.7944,2.7952,2.8031,2.7986,2.7991,2.7994,2.7996,2.8147,2.8148,0,0,0,0,0,0,2.7592,2.7611,2.7756,2.7762,2.7676,2.7756,2.777,2.7803,2.7871,2.7881,2.7838,2.7838,2.7936,2.7946,2.7956,2.8015,2.7991,2.7996,2.7999,2.8146,2.8147,2.8149,0,0,0,0,0,0,2.7587,2.7604,2.7751,2.7688,2.7707,2.776,2.7798,2.7806,2.783,2.7884,2.7893,2.7853,2.7936,2.7949,2.8003,2.802,2.7998,2.8003,2.8145,2.8147,2.8148,2.8137,0,0,0,0,0,0,2.7582,2.7603,2.7625,2.7688,2.771,2.78,2.7799,2.7809,2.784,2.7841,2.79,2.7909,2.7936,2.7995,2.8008,2.8026,2.8007,2.8144,2.8146,2.8148,2.8136,2.8138,2.8139,0,0,0,0,0,2.7575,2.7617,2.7626,2.7643,2.774,2.7801,2.7813,2.7846,2.7841,2.7862,2.7895,2.7907,2.8016,2.8001,2.8015,2.8035,2.8143,2.8145,2.8147,2.8135,2.8138,2.8139,0,0,0,0,0,0,2.7553,2.7626,2.7637,2.7702,2.7745,2.7806,2.7834,2.7848,2.7892,2.7891,2.7927,2.794,2.7991,2.8019,2.8001,2.8084,2.8079,2.8084,2.8065,2.8067,2.8069,2.8061,2.8011,0,0,0,0,0,2.7556,2.7603,2.7663,2.7714,2.7735,2.778,2.7809,2.783,2.7875,2.7893,2.7931,2.7972,2.8015,2.8043,2.8085,2.814,2.8151,2.816,2.8162,2.8163,2.8167,2.8193,2.8197,2.8156,2.8156,2.8156,0,0,2.7562,2.7608,2.7635,2.771,2.7747,2.7791,2.7796,2.7843,2.7875,2.79,2.7954,2.7982,2.803,2.8083,2.8109,2.8108,2.818,2.8165,2.8166,2.8169,2.8196,2.8199,2.8203,2.8157,2.8157,2.8157,0,0,2.7596,2.7637,2.7682,2.7718,2.7773,2.7802,2.7812,2.7871,2.7891,2.7946,2.7964,2.8,2.8075,2.8108,2.8134,2.8174,2.8185,2.8187,2.8195,2.8221,2.8224,2.8227,2.8239,2.8243,2.819,2.819,2.819,0,2.7596,2.7667,2.7703,2.7749,2.7779,2.7805,2.7848,2.788,2.7945,2.7964,2.7962,2.8053,2.8087,2.8147,2.8157,2.8178,2.8188,2.8181,2.8221,2.8225,2.8228,2.8239,2.8244,2.819,2.819,2.819,2.819,0,2.7662,2.771,2.774,2.7803,2.7837,2.7881,2.792,2.7949,2.7966,2.7994,2.8046,2.8088,2.8138,2.8153,2.817,2.8214,2.8211,2.8215,2.821,2.8231,2.8242,2.8247,2.819,2.819,2.819,2.819,0,0,2.7688,2.7769,2.7779,2.7806,2.7867,2.7903,2.7945,2.7996,2.8019,2.8061,2.8096,2.8156,2.8159,2.8188,2.8208,2.8231,2.8256,2.8231,2.8232,2.8232,2.8303,2.8299,2.8304,2.8263,2.8264,2.8265,2.8298,0,2.7727,2.7809,2.7841,2.7905,2.7947,2.7969,2.8006,2.8045,2.8071,2.8107,2.8135,2.8176,2.8178,2.8196,2.8219,2.8248,2.827,2.8246,2.8292,2.8294,2.828,2.831,2.8308,2.8337,2.8303,2.8304,2.8304,0,2.7786,2.783,2.7899,2.7951,2.797,2.8003,2.805,2.8086,2.8128,2.8145,2.8176,2.8194,2.8235,2.8227,2.8282,2.8265,2.8285,2.8302,2.8304,2.8309,2.83,2.8314,2.8347,2.8351,2.8312,2.8311,2.8311,0,2.7794,2.7871,2.7921,2.7944,2.8007,2.8029,2.8055,2.8097,2.8124,2.8163,2.818,2.8223,2.8246,2.8277,2.8304,2.8297,2.8355,2.8351,2.8367,2.8367,2.8379,2.8378,2.8414,2.8393,2.8393,2.8393,2.8393,0,2.7834,2.7875,2.7926,2.7957,2.8001,2.8035,2.8077,2.8104,2.814,2.8173,2.8194,2.8224,2.8259,2.8293,2.8314,2.8354,2.8364,2.8377,2.8382,2.8375,2.8373,2.8388,2.8386,2.8394,2.8394,2.8394,2.8394,0,2.7852,2.7888,2.7944,2.7998,2.8012,2.8042,2.8087,2.8115,2.8141,2.8183,2.8194,2.8234,2.8274,2.8304,2.8356,2.8369,2.8412,2.8418,2.8398,2.8401,2.8415,2.8413,2.8462,2.8468,2.8444,2.8444,2.8445,0,2.7875,2.7907,2.7964,2.7989,2.8016,2.8056,2.8083,2.8116,2.8143,2.8191,2.8213,2.8255,2.829,2.8352,2.8383,2.8422,2.8428,2.8442,2.8434,2.8424,2.8426,2.8423,2.8425,2.8443,2.8443,2.8443,2.8443,0,2.7911,2.7926,2.7967,2.8013,2.8045,2.8082,2.8119,2.8137,2.8175,2.8204,2.8246,2.8274,2.8326,2.8366,2.8407,2.843,2.8442,2.8445,2.8451,2.8444,2.8431,2.8436,2.84,2.8444,2.8444,2.8444,2.8444,2.8444,2.793,2.7959,2.8003,2.8046,2.8077,2.811,2.8139,2.8168,2.8205,2.8252,2.8267,2.831,2.8347,2.8403,2.8427,2.8458,2.8458,2.8466,2.8468,2.847,2.8468,2.8426,2.8465,2.8465,2.8465,2.8465,2.8465,0,2.7966,2.7995,2.8034,2.8086,2.8118,2.8128,2.8169,2.8194,2.8233,2.8267,2.8301,2.8347,2.8385,2.8419,2.8457,2.8476,2.8482,2.8484,2.8483,2.8487,2.8467,2.8458,2.8479,2.8479,2.8479,2.8479,2.8479,2.8479,2.7988,2.8035,2.8055,2.8116,2.8144,2.8188,2.8209,2.8238,2.8266,2.8318,2.835,2.8372,2.8405,2.8446,2.8479,2.8488,2.85,2.8501,2.8511,2.8491,2.8489,2.8488,2.8479,2.8504,2.8504,2.8529,2.8529,2.8529]}]]